H1 CPF 2 NER 2024 3 15 9 075 01 glonass106 H2 0705201 9106 32275 2024 3 15 0 0 0 2024 3 18 23 45 0 900 1 1 0 0 0 1 H9 10 0 60384 0.00000 0 -6779255.803 -9169178.036 22815723.863 10 0 60384 900.00000 0 -3982468.235 -9704874.631 23249936.888 10 0 60384 1800.00000 0 -1210179.232 -10459612.021 23232589.384 10 0 60384 2700.00000 0 1468094.255 -11414177.916 22764035.476 10 0 60384 3600.00000 0 3987567.401 -12537505.606 21853386.705 10 0 60384 4500.00000 0 6290642.431 -13787927.508 20518334.795 10 0 60384 5400.00000 0 8329059.751 -15114891.952 18784808.740 10 0 60384 6300.00000 0 10065656.822 -16461071.630 16686472.648 10 0 60384 7200.00000 0 11475662.547 -17764775.624 14264073.731 10 0 60384 8100.00000 0 12547474.340 -18962564.030 11564652.726 10 0 60384 9000.00000 0 13282886.465 -19991955.572 8640631.670 10 0 60384 9900.00000 0 13696761.239 -20794114.350 5548796.549 10 0 60384 10800.00000 0 13816157.937 -21316402.624 2349194.434 10 0 60384 11700.00000 0 13678957.043 -21514691.824 -896033.474 10 0 60384 12600.00000 0 13332038.838 -21355334.226 -4123859.931 10 0 60384 13500.00000 0 12829093.869 -20816711.651 -7271597.169 10 0 60384 14400.00000 0 12228158.361 -19890295.282 -10278115.661 10 0 60384 15300.00000 0 11588979.452 -18581171.527 -13085032.105 10 0 60384 16200.00000 0 10970321.941 -16908011.117 -15637843.301 10 0 60384 17100.00000 0 10427330.654 -14902482.081 -17886983.820 10 0 60384 18000.00000 0 10009059.973 -12608130.456 -19788786.936 10 0 60384 18900.00000 0 9756274.871 -10078774.915 -21306330.432 10 0 60384 19800.00000 0 9699616.234 -7376481.599 -22410151.197 10 0 60384 20700.00000 0 9858207.799 -4569202.903 -23078815.173 10 0 60384 21600.00000 0 10238763.424 -1728177.744 -23299332.031 10 0 60384 22500.00000 0 10835232.456 1074799.414 -23067406.848 10 0 60384 23400.00000 0 11628998.366 3770128.061 -22387524.130 10 0 60384 24300.00000 0 12589622.779 6293056.327 -21272862.541 10 0 60384 25200.00000 0 13676104.119 8586131.434 -19745041.796 10 0 60384 26100.00000 0 14838598.607 10601344.830 -17833706.292 10 0 60384 27000.00000 0 16020531.815 12301883.610 -15575953.046 10 0 60384 27900.00000 0 17161012.495 13663416.041 -13015614.520 10 0 60384 28800.00000 0 18197447.453 14674858.327 -10202409.752 10 0 60384 29700.00000 0 19068247.515 15338591.395 -7190979.932 10 0 60384 30600.00000 0 19715510.534 15670119.435 -4039826.897 10 0 60384 31500.00000 0 20087568.011 15697185.420 -810175.236 10 0 60384 32400.00000 0 20141287.471 15458381.671 2435219.685 10 0 60384 33300.00000 0 19844032.856 15001314.917 5633294.250 10 0 60384 34200.00000 0 19175199.485 14380404.072 8721905.351 10 0 60384 35100.00000 0 18127258.137 13654404.558 11641040.978 10 0 60384 36000.00000 0 16706263.438 12883764.391 14333988.649 10 0 60384 36900.00000 0 14931804.412 12127924.357 16748438.561 10 0 60384 37800.00000 0 12836398.542 11442676.671 18837499.875 10 0 60384 38700.00000 0 10464354.029 10877693.935 20560610.424 10 0 60384 39600.00000 0 7870147.233 10474332.713 21884322.371 10 0 60384 40500.00000 0 5116382.432 10263804.296 22782948.957 10 0 60384 41400.00000 0 2271418.309 10265789.596 23239060.258 10 0 60384 42300.00000 0 -593240.628 10487556.328 23243818.790 10 0 60384 43200.00000 0 -3405679.948 10923615.504 22797148.886 10 0 60384 44100.00000 0 -6096325.599 11555931.606 21907736.825 10 0 60384 45000.00000 0 -8600595.137 12354677.688 20592861.841 10 0 60384 45900.00000 0 -10861340.613 13279503.766 18878061.205 10 0 60384 46800.00000 0 -12830982.471 14281265.420 16796635.644 10 0 60384 47700.00000 0 -14473246.546 15304140.155 14389004.369 10 0 60384 48600.00000 0 -15764432.757 16288042.691 11701921.842 10 0 60384 49500.00000 0 -16694163.501 17171237.697 8787571.093 10 0 60384 50400.00000 0 -17265581.410 17893039.908 5702550.989 10 0 60384 51300.00000 0 -17494989.150 18396487.761 2506776.953 10 0 60384 52200.00000 0 -17410947.404 18630877.540 -737683.452 10 0 60384 53100.00000 0 -17052869.827 18554050.766 -3967817.255 10 0 60384 54000.00000 0 -16469174.993 18134337.799 -7120891.355 10 0 60384 54900.00000 0 -15715074.030 17352075.112 -10135672.224 10 0 60384 55800.00000 0 -14850087.839 16200631.528 -12953615.925 10 0 60384 56700.00000 0 -13935399.205 14686899.466 -15520005.147 10 0 60384 57600.00000 0 -13031151.878 12831229.822 -17785011.022 10 0 60384 58500.00000 0 -12193810.662 10666812.241 -19704659.170 10 0 60384 59400.00000 0 -11473693.807 8238525.918 -21241681.451 10 0 60384 60300.00000 0 -10912781.562 5601308.003 -22366237.245 10 0 60384 61200.00000 0 -10542892.946 2818106.812 -23056490.682 10 0 60384 62100.00000 0 -10384307.243 -42495.842 -23299033.037 10 0 60384 63000.00000 0 -10444887.984 -2908895.236 -23089142.475 10 0 60384 63900.00000 0 -10719746.164 -5709199.608 -22430876.260 10 0 60384 64800.00000 0 -11191456.845 -8373978.599 -21336993.718 10 0 60384 65700.00000 0 -11830820.167 -10838910.936 -19828711.208 10 0 60384 66600.00000 0 -12598135.030 -13047222.109 -17935293.562 10 0 60384 67500.00000 0 -13444932.126 -14951811.421 -15693489.400 10 0 60384 68400.00000 0 -14316093.686 -16516980.525 -13146820.752 10 0 60384 69300.00000 0 -15152270.857 -17719692.009 -10344740.298 10 0 60384 70200.00000 0 -15892496.911 -18550306.109 -7341672.198 10 0 60384 71100.00000 0 -16476885.964 -19012765.381 -4195954.899 10 0 60384 72000.00000 0 -16849303.008 -19124220.286 -968706.505 10 0 60384 72900.00000 0 -16959892.068 -18914112.178 2277365.059 10 0 60384 73800.00000 0 -16767355.071 -18422753.037 5479183.591 10 0 60384 74700.00000 0 -16240884.432 -17699462.590 8574533.578 10 0 60384 75600.00000 0 -15361666.970 -16800342.118 11503272.180 10 0 60384 76500.00000 0 -14123894.818 -15785779.551 14208500.196 10 0 60384 77400.00000 0 -12535239.873 -14717791.718 16637668.863 10 0 60384 78300.00000 0 -10616770.915 -13657316.255 18743600.818 10 0 60384 79200.00000 0 -8402316.015 -12661567.615 20485405.424 10 0 60384 80100.00000 0 -5937296.080 -11781568.637 21829270.866 10 0 60384 81000.00000 0 -3277077.486 -11059961.475 22749118.048 10 0 60384 81900.00000 0 -484911.712 -10529189.716 23227104.035 10 0 60384 82800.00000 0 2370452.951 -10210127.765 23253965.753 10 0 60384 83700.00000 0 5217389.082 -10111214.663 22829197.684 10 0 60384 84600.00000 0 7984129.183 -10228128.355 21961060.394 10 0 60384 85500.00000 0 10601513.089 -10544013.723 20666419.814 10 0 60385 0.00000 0 13005630.191 -11030254.520 18970420.532 10 0 60385 900.00000 0 15140248.674 -11647756.858 16905998.162 10 0 60385 1800.00000 0 16958928.335 -12348689.515 14513242.343 10 0 60385 2700.00000 0 18426734.004 -13078608.588 11838619.268 10 0 60385 3600.00000 0 19521475.631 -13778876.370 8934070.694 10 0 60385 4500.00000 0 20234425.317 -14389272.579 5856005.827 10 0 60385 5400.00000 0 20570481.803 -14850687.558 2664205.694 10 0 60385 6300.00000 0 20547776.403 -15107783.485 -579338.705 10 0 60385 7200.00000 0 20196737.730 -15111510.835 -3811631.654 10 0 60385 8100.00000 0 19558655.306 -14821373.317 -6969897.685 10 0 60385 9000.00000 0 18683803.149 -14207344.966 -9992802.115 10 0 60385 9900.00000 0 17629203.054 -13251357.793 -12821643.066 10 0 60385 10800.00000 0 16456122.428 -11948296.569 -15401491.568 10 0 60385 11700.00000 0 15227412.341 -10306457.880 -17682257.527 10 0 60385 12600.00000 0 14004798.085 -8347453.268 -19619660.846 10 0 60385 13500.00000 0 12846236.320 -6105559.506 -21176089.102 10 0 60385 14400.00000 0 11803449.766 -3626542.111 -22321325.479 10 0 60385 15300.00000 0 10919742.802 -966000.206 -23033133.246 10 0 60385 16200.00000 0 10228189.316 1812699.338 -23297685.879 10 0 60385 17100.00000 0 9750268.471 4640813.545 -23109834.825 10 0 60385 18000.00000 0 9495005.225 7446842.314 -22473209.951 10 0 60385 18900.00000 0 9458651.339 10159266.841 -21400150.717 10 0 60385 19800.00000 0 9624919.972 12709294.608 -19911469.282 10 0 60385 20700.00000 0 9965763.870 15033497.608 -18036049.741 10 0 60385 21600.00000 0 10442664.318 17076234.769 -15810290.842 10 0 60385 22500.00000 0 11008376.604 18791758.304 -13277402.418 10 0 60385 23400.00000 0 11609058.419 20145916.669 -10486568.732 10 0 60385 24300.00000 0 12186691.367 21117383.473 -7491994.570 10 0 60385 25200.00000 0 12681693.209 21698361.421 -4351852.397 10 0 60385 26100.00000 0 13035610.170 21894732.255 -1127151.031 10 0 60385 27000.00000 0 13193775.062 21725646.949 2119451.979 10 0 60385 27900.00000 0 13107818.251 21222574.004 5324870.831 10 0 60385 28800.00000 0 12737924.572 20427846.489 8426820.572 10 0 60385 29700.00000 0 12054740.003 19392769.712 11365030.387 10 0 60385 30600.00000 0 11040846.665 18175369.839 14082417.059 10 0 60385 31500.00000 0 9691743.021 16837878.879 16526195.363 10 0 60385 32400.00000 0 8016287.008 15444062.394 18648903.685 10 0 60385 33300.00000 0 6036582.485 14056502.659 20409324.926 10 0 60385 34200.00000 0 3787312.806 12733951.671 21773285.022 10 0 60385 35100.00000 0 1314548.429 11528865.090 22714313.935 10 0 60385 36000.00000 0 -1325922.557 10485220.378 23214156.739 10 0 60385 36900.00000 0 -4070672.294 9636710.231 23263125.365 10 0 60385 37800.00000 0 -6851033.754 9005386.496 22860284.564 10 0 60385 38700.00000 0 -9595725.093 8600810.789 22013468.778 10 0 60385 39600.00000 0 -12233589.457 8419746.803 20739129.702 10 0 60385 40500.00000 0 -14696337.116 8446406.574 19062017.423 10 0 60385 41400.00000 0 -16921176.656 8653239.845 17014701.099 10 0 60385 42300.00000 0 -18853226.381 9002232.866 14636938.141 10 0 60385 43200.00000 0 -20447606.091 9446661.617 11974903.781 10 0 60385 44100.00000 0 -21671122.608 9933225.261 9080295.589 10 0 60385 45000.00000 0 -22503479.144 10404469.589 6009330.104 10 0 60385 45900.00000 0 -22937958.521 10801397.821 2821650.933 10 0 60385 46800.00000 0 -22981552.222 11066158.136 -420830.457 10 0 60385 47700.00000 0 -22654530.355 11144693.910 -3655138.492 10 0 60385 48600.00000 0 -21989471.372 10989244.147 -6818458.120 10 0 60385 49500.00000 0 -21029792.749 10560587.785 -9849356.176 10 0 60385 50400.00000 0 -19827845.039 9829936.380 -12688975.354 10 0 60385 51300.00000 0 -18442650.024 8780394.513 -15282177.369 10 0 60385 52200.00000 0 -16937378.453 7407925.515 -17578612.996 10 0 60385 53100.00000 0 -15376673.633 5721780.948 -19533698.204 10 0 60385 54000.00000 0 -13823933.288 3744374.714 -21109477.715 10 0 60385 54900.00000 0 -12338663.676 1510605.983 -22275359.540 10 0 60385 55800.00000 0 -10974016.642 -933341.878 -23008706.695 10 0 60385 56700.00000 0 -9774612.397 -3531677.408 -23295275.025 10 0 60385 57600.00000 0 -8774738.645 -6221083.506 -23129489.025 10 0 60385 58500.00000 0 -7997000.924 -8933120.624 -22514550.502 10 0 60385 59400.00000 0 -7451480.041 -11596851.800 -21462378.026 10 0 60385 60300.00000 0 -7135431.354 -14141581.303 -19993378.154 10 0 60385 61200.00000 0 -7033537.979 -16499593.787 -18136052.554 10 0 60385 62100.00000 0 -7118706.852 -18608780.626 -15926448.151 10 0 60385 63000.00000 0 -7353373.804 -20415044.581 -13407460.446 10 0 60385 63900.00000 0 -7691262.393 -21874382.880 -10628003.018 10 0 60385 64800.00000 0 -8079522.026 -22954562.022 -7642058.976 10 0 60385 65700.00000 0 -8461154.802 -23636314.531 -4507632.476 10 0 60385 66600.00000 0 -8777628.121 -23914007.729 -1285620.746 10 0 60385 67500.00000 0 -8971562.096 -23795756.799 1961371.323 10 0 60385 68400.00000 0 -8989377.452 -23302977.717 5170250.614 10 0 60385 69300.00000 0 -8783791.201 -22469399.266 8278665.014 10 0 60385 70200.00000 0 -8316053.705 -21339576.199 11226218.023 10 0 60385 71100.00000 0 -7557831.724 -19966966.570 13955644.673 10 0 60385 72000.00000 0 -6492657.008 -18411654.642 16413925.490 10 0 60385 72900.00000 0 -5116878.413 -16737815.508 18553316.684 10 0 60385 73800.00000 0 -3440076.431 -15011028.245 20332276.574 10 0 60385 74700.00000 0 -1484921.773 -13295550.533 21716270.455 10 0 60385 75600.00000 0 713517.136 -11651668.956 22678438.614 10 0 60385 76500.00000 0 3108989.782 -10133235.726 23200115.049 10 0 60385 77400.00000 0 5645752.538 -8785494.534 23271187.207 10 0 60385 78300.00000 0 8260661.523 -7643285.841 22890290.231 10 0 60385 79200.00000 0 10885583.141 -6729705.955 22064832.199 10 0 60385 80100.00000 0 13450022.779 -6055275.182 20810849.969 10 0 60385 81000.00000 0 15883863.090 -5617648.991 19152698.381 10 0 60385 81900.00000 0 18120098.605 -5401883.455 17122578.595 10 0 60385 82800.00000 0 20097453.351 -5381243.060 14759914.406 10 0 60385 83700.00000 0 21762772.901 -5518516.168 12110588.253 10 0 60385 84600.00000 0 23073091.466 -5767782.175 9226051.394 10 0 60385 85500.00000 0 23997287.990 -6076555.304 6162325.277 10 0 60386 0.00000 0 24517262.311 -6388214.018 2978913.690 10 0 60386 900.00000 0 24628582.587 -6644613.097 -262354.900 10 0 60386 1800.00000 0 24340576.735 -6788767.007 -3498527.806 10 0 60386 2700.00000 0 23675865.214 -6767491.136 -6666753.440 10 0 60386 3600.00000 0 22669354.381 -6533888.153 -9705503.120 10 0 60386 4500.00000 0 21366733.561 -6049573.911 -12555766.909 10 0 60386 5400.00000 0 19822539.234 -5286548.101 -15162199.760 10 0 60386 6300.00000 0 18097867.965 -4228629.954 -17474195.588 10 0 60386 7200.00000 0 16257834.266 -2872397.618 -19446868.414 10 0 60386 8100.00000 0 14368880.010 -1227590.717 -21041921.778 10 0 60386 9000.00000 0 12496048.046 683041.870 -22228389.901 10 0 60386 9900.00000 0 10700333.829 2824443.771 -22983236.599 10 0 60386 10800.00000 0 9036225.402 5150474.250 -23291800.815 10 0 60386 11700.00000 0 7549533.967 7605602.878 -23148080.459 10 0 60386 12600.00000 0 6275605.007 10127006.241 -22554849.286 10 0 60386 13500.00000 0 5237983.978 12646980.444 -21523604.602 10 0 60386 14400.00000 0 4447591.558 15095570.006 -20074346.628 10 0 60386 15300.00000 0 3902442.224 17403304.493 -18235193.493 10 0 60386 16200.00000 0 3587917.220 19503929.581 -16041838.842 10 0 60386 17100.00000 0 3477579.772 21337019.222 -13536862.039 10 0 60386 18000.00000 0 3534497.682 22850360.166 -10768903.871 10 0 60386 18900.00000 0 3713017.047 24002009.431 -7791723.343 10 0 60386 19800.00000 0 3960911.719 24761938.673 -4663153.635 10 0 60386 20700.00000 0 4221817.198 25113196.584 -1443977.506 10 0 60386 21600.00000 0 4437845.441 25052540.613 1803255.830 10 0 60386 22500.00000 0 4552269.330 24590511.536 5015449.008 10 0 60386 23400.00000 0 4512162.445 23750947.904 8130185.792 10 0 60386 24300.00000 0 4270881.692 22569961.015 11086946.942 10 0 60386 25200.00000 0 3790286.939 21094413.780 13828288.521 10 0 60386 26100.00000 0 3042603.003 19379967.743 16300959.384 10 0 60386 27000.00000 0 2011844.509 17488780.568 18456935.909 10 0 60386 27900.00000 0 694742.644 15486950.818 20254353.933 10 0 60386 28800.00000 0 -898866.133 13441817.266 21658319.907 10 0 60386 29700.00000 0 -2746206.703 11419225.750 22641585.944 10 0 60386 30600.00000 0 -4812281.276 9480877.612 23185076.078 10 0 60386 31500.00000 0 -7051105.765 7681870.135 23278253.978 10 0 60386 32400.00000 0 -9407415.921 6068531.037 22919325.416 10 0 60386 33300.00000 0 -11818772.979 4676636.642 22115271.809 10 0 60386 34200.00000 0 -14217981.948 3530087.237 20881714.333 10 0 60386 35100.00000 0 -16535722.548 2640093.949 19242611.173 10 0 60386 36000.00000 0 -18703283.872 2004910.099 17229793.545 10 0 60386 36900.00000 0 -20655289.303 1610117.265 14882349.198 10 0 60386 37800.00000 0 -22332298.427 1429453.073 12245864.957 10 0 60386 38700.00000 0 -23683177.621 1426144.991 9371542.654 10 0 60386 39600.00000 0 -24667140.366 1554693.178 6315205.365 10 0 60386 40500.00000 0 -25255372.037 1763026.456 3136213.135 10 0 60386 41400.00000 0 -25432171.186 1994939.703 -103690.748 10 0 60386 42300.00000 0 -25195559.558 2192709.008 -3341580.277 10 0 60386 43200.00000 0 -24557335.320 2299773.398 -6514570.441 10 0 60386 44100.00000 0 -23542567.488 2263369.085 -9561039.993 10 0 60386 45000.00000 0 -22188552.806 2037004.207 -12421829.134 10 0 60386 45900.00000 0 -20543279.163 1582668.780 -15041388.600 10 0 60386 46800.00000 0 -18663460.229 872685.875 -17368857.701 10 0 60386 47700.00000 0 -16612223.716 -108874.812 -19359050.402 10 0 60386 48600.00000 0 -14456550.107 -1365281.358 -20973330.524 10 0 60386 49500.00000 0 -12264568.837 -2886761.396 -22180359.447 10 0 60386 50400.00000 0 -10102824.663 -4650678.165 -22956702.210 10 0 60386 51300.00000 0 -8033627.871 -6622254.547 -23287280.734 10 0 60386 52200.00000 0 -6112598.267 -8755815.998 -23165665.700 10 0 60386 53100.00000 0 -4386504.696 -10996501.576 -22594201.693 10 0 60386 54000.00000 0 -2891489.325 -13282372.829 -21583963.213 10 0 60386 54900.00000 0 -1651749.956 -15546833.623 -20154542.251 10 0 60386 55800.00000 0 -678734.464 -17721260.883 -18333671.225 10 0 60386 56700.00000 0 29119.818 -19737737.223 -16156688.111 10 0 60386 57600.00000 0 486091.754 -21531771.942 -13665853.619 10 0 60386 58500.00000 0 718340.249 -23044896.946 -10909533.153 10 0 60386 59400.00000 0 762562.246 -24227029.181 -7941259.033 10 0 60386 60300.00000 0 664202.137 -25038500.576 -4818690.927 10 0 60386 61200.00000 0 475288.857 -25451670.226 -1602494.675 10 0 60386 62100.00000 0 251992.785 -25452050.982 1644838.521 10 0 60386 63000.00000 0 52006.469 -25038902.926 4860209.284 10 0 60386 63900.00000 0 -68139.215 -24225268.662 7981139.397 10 0 60386 64800.00000 0 -55709.121 -23037448.885 10946988.915 10 0 60386 65700.00000 0 135764.114 -21513940.302 13700136.876 10 0 60386 66600.00000 0 544275.335 -19703880.591 16187102.271 10 0 60386 67500.00000 0 1197503.379 -17665065.795 18359583.304 10 0 60386 68400.00000 0 2111407.373 -15461623.337 20175394.757 10 0 60386 69300.00000 0 3289322.780 -13161438.123 21599285.420 10 0 60386 70200.00000 0 4721596.023 -10833439.272 22603620.104 10 0 60386 71100.00000 0 6385773.910 -8544860.521 23168913.434 10 0 60386 72000.00000 0 8247340.813 -6358588.204 23284205.513 10 0 60386 72900.00000 0 10260973.657 -4330706.789 22947272.612 10 0 60386 73800.00000 0 12372263.200 -2508343.433 22164669.049 10 0 60386 74700.00000 0 14519830.556 -927900.545 20951599.588 10 0 60386 75600.00000 0 16637751.398 386251.015 19331624.752 10 0 60386 76500.00000 0 18658187.369 1422564.661 17336204.564 10 0 60386 77400.00000 0 20514115.324 2182564.723 15004089.232 10 0 60386 78300.00000 0 22142040.802 2680537.839 12380568.237 10 0 60386 79200.00000 0 23484582.505 2942683.149 9516592.013 10 0 60386 80100.00000 0 24492819.705 3005758.023 6467783.058 10 0 60386 81000.00000 0 25128304.189 2915277.319 3293355.534 10 0 60386 81900.00000 0 25364652.339 2723342.979 54964.363 10 0 60386 82800.00000 0 25188650.426 2486196.441 -3184493.594 10 0 60386 83700.00000 0 24600826.548 2261597.982 -6362102.678 10 0 60386 84600.00000 0 23615465.056 2106144.498 -9416151.809 10 0 60386 85500.00000 0 22260062.770 2072639.783 -12287333.923 10 0 60387 0.00000 0 20574250.022 2207629.061 -14919897.695 10 0 60387 900.00000 0 18608220.663 2549202.636 -17262730.441 10 0 60387 1800.00000 0 16420739.101 3125161.713 -19270347.696 10 0 60387 2700.00000 0 14076804.610 3951624.597 -20903775.179 10 0 60387 3600.00000 0 11645072.441 5032132.509 -22131302.801 10 0 60387 4500.00000 0 9195138.212 6357293.443 -22929097.959 10 0 60387 5400.00000 0 6794798.458 7904979.895 -23281666.410 10 0 60387 6300.00000 0 4507400.840 9641073.200 -23182152.187 10 0 60387 7200.00000 0 2389393.631 11520724.316 -22632470.949 10 0 60387 8100.00000 0 488175.687 13490079.453 -21643274.271 10 0 60387 9000.00000 0 -1159664.472 15488399.415 -20233745.401 10 0 60387 9900.00000 0 -2529647.996 17450485.035 -18431230.130 10 0 60387 10800.00000 0 -3610190.176 19309308.079 -16270709.458 10 0 60387 11700.00000 0 -4402838.254 20998738.201 -13794123.759 10 0 60387 12600.00000 0 -4921953.515 22456252.125 -11049561.038 10 0 60387 13500.00000 0 -5193851.955 23625511.708 -8090324.613 10 0 60387 14400.00000 0 -5255440.517 24458702.689 -4973898.078 10 0 60387 15300.00000 0 -5152407.244 24918535.697 -1760827.609 10 0 60387 16200.00000 0 -4937042.539 24979825.097 1486456.493 10 0 60387 17100.00000 0 -4665784.429 24630578.940 4704855.782 10 0 60387 18000.00000 0 -4396592.447 23872553.764 7831833.014 10 0 60387 18900.00000 0 -4186262.017 22721250.616 10806630.433 10 0 60387 19800.00000 0 -4087793.732 21205352.184 13571452.837 10 0 60387 20700.00000 0 -4147929.495 19365624.516 16072591.995 10 0 60387 21600.00000 0 -4404960.313 17253329.272 18261470.395 10 0 60387 22500.00000 0 -4886898.961 14928212.931 20095584.019 10 0 60387 23400.00000 0 -5610095.141 12456156.968 21539326.014 10 0 60387 24300.00000 0 -6578352.118 9906586.982 22564675.621 10 0 60387 25200.00000 0 -7782582.573 7349748.576 23151739.458 10 0 60387 26100.00000 0 -9201018.843 4853963.087 23289135.079 10 0 60387 27000.00000 0 -10799969.444 2482976.865 22974209.820 10 0 60387 27900.00000 0 -12535090.961 293513.642 22213090.960 10 0 60387 28800.00000 0 -14353122.827 -1666868.967 21020566.349 10 0 60387 29700.00000 0 -16194013.157 -3361530.640 19419797.778 10 0 60387 30600.00000 0 -17993347.388 -4766035.304 17441872.437 10 0 60387 31500.00000 0 -19684978.631 -5868921.312 15125200.821 10 0 60387 32400.00000 0 -21203750.059 -6671923.879 12514772.425 10 0 60387 33300.00000 0 -22488195.528 -7189641.614 9661283.280 10 0 60387 34200.00000 0 -23483105.284 -7448662.286 6620152.020 10 0 60387 35100.00000 0 -24141849.032 -7486185.696 3450443.478 10 0 60387 36000.00000 0 -24428358.649 -7348202.613 213720.688 10 0 60387 36900.00000 0 -24318686.907 -7087307.537 -3027152.138 10 0 60387 37800.00000 0 -23802076.499 -6760238.512 -6209232.137 10 0 60387 38700.00000 0 -22881494.000 -6425248.637 -9270721.725 10 0 60387 39600.00000 0 -21573605.971 -6139421.024 -12152169.731 10 0 60387 40500.00000 0 -19908197.969 -5956041.340 -14797626.169 10 0 60387 41400.00000 0 -17927060.535 -5922139.409 -17155728.073 10 0 60387 42300.00000 0 -15682388.531 -6076304.135 -19180695.326 10 0 60387 43200.00000 0 -13234760.425 -6446864.331 -20833217.354 10 0 60387 44100.00000 0 -10650781.550 -7050512.542 -22081213.861 10 0 60387 45000.00000 0 -8000489.202 -7891430.320 -22900455.235 10 0 60387 45900.00000 0 -5354627.107 -8960952.266 -23275031.084 10 0 60387 46800.00000 0 -2781902.008 -10237783.699 -23197658.180 10 0 60387 47700.00000 0 -346335.742 -11688763.599 -22669822.087 10 0 60387 48600.00000 0 1895177.914 -13270141.757 -21701749.793 10 0 60387 49500.00000 0 3895010.941 -14929317.541 -20312213.735 10 0 60387 50400.00000 0 5616545.203 -16606968.333 -18528170.679 10 0 60387 51300.00000 0 7035451.334 -18239479.247 -16384242.006 10 0 60387 52200.00000 0 8140449.925 -19761572.943 -13922044.926 10 0 60387 53100.00000 0 8933524.136 -21109029.611 -11189387.087 10 0 60387 54000.00000 0 9429575.795 -22221383.187 -8239339.800 10 0 60387 54900.00000 0 9655540.326 -23044480.455 -5129207.568 10 0 60387 55800.00000 0 9648998.676 -23532795.200 -1919413.940 10 0 60387 56700.00000 0 9456345.644 -23651399.619 1327674.537 10 0 60387 57600.00000 0 9130592.785 -23377509.507 4548963.049 10 0 60387 58500.00000 0 8728899.611 -22701537.603 7681857.826 10 0 60387 59400.00000 0 8309938.240 -21627610.192 10665485.576 10 0 60387 60300.00000 0 7931203.719 -20173524.732 13441878.876 10 0 60387 61200.00000 0 7646384.419 -18370149.826 15957104.013 10 0 60387 62100.00000 0 7502904.217 -16260292.338 18162309.190 10 0 60387 63000.00000 0 7539740.752 -13897078.768 20014672.700 10 0 60387 63900.00000 0 7785612.238 -11341918.288 21478232.806 10 0 60387 64800.00000 0 8257609.593 -8662132.176 22524583.594 10 0 60387 65700.00000 0 8960331.864 -5928348.071 23133423.729 10 0 60387 66600.00000 0 9885561.648 -3211767.129 23292947.930 10 0 60387 67500.00000 0 11012494.614 -581417.156 23000073.995 10 0 60387 68400.00000 0 12308513.970 1898494.793 22260501.262 10 0 60387 69300.00000 0 13730477.968 4171021.094 21088599.520 10 0 60387 70200.00000 0 15226467.021 6188603.042 19507130.460 10 0 60387 71100.00000 0 16737917.786 7914803.567 17546806.868 10 0 60387 72000.00000 0 18202055.190 9325572.031 15245697.792 10 0 60387 72900.00000 0 19554520.797 10409989.482 12648490.846 10 0 60387 73800.00000 0 20732087.446 11170464.361 9805625.595 10 0 60387 74700.00000 0 21675346.203 11622371.588 6772314.608 10 0 60387 75600.00000 0 22331252.626 11793151.314 3607471.046 10 0 60387 76500.00000 0 22655425.035 11720906.316 372563.617 10 0 60387 77400.00000 0 22614097.723 11452558.105 -2869578.616 10 0 60387 78300.00000 0 22185646.508 11041640.448 -6055988.082 10 0 60387 79200.00000 0 21361621.903 10545824.231 -9124783.097 10 0 60387 80100.00000 0 20147245.977 10024278.941 -12016370.651 10 0 60387 81000.00000 0 18561351.461 9534982.781 -14674603.929 10 0 60387 81900.00000 0 16635765.153 9132095.487 -17047871.991 10 0 60387 82800.00000 0 14414160.908 8863505.103 -19090100.418 10 0 60387 83700.00000 0 11950429.688 8768652.444 -20761643.733 10 0 60387 84600.00000 0 9306634.109 8876725.141 -22030052.611 10 0 60387 85500.00000 0 6550632.254 9205297.551 -22870701.435 99